Regional Weather Roundup
Issued by NWS

Home | Current Version | Previous Version | Graphics & Text | Print | Product List | Glossary On
Versions: 1 2 3 4 5 6 7 8 9 10 11 12 13 14 15 16 17 18 19 20 21 22 23 24 25 26 27 28 29 30 31 32 33 34 35 36 37 38 39 40 41 42 43 44 45 46 47 48 49 50
000
ASUS43 KLOT 020400
RWRIL

ILLINOIS REGIONAL WEATHER ROUNDUP
NATIONAL WEATHER SERVICE CHICAGO/ROMEOVILLE IL
1100 PM CDT MON SEP 01 2014

NOTE: "FAIR" INDICATES FEW OR NO CLOUDS BELOW 12,000 FEET WITH NO
SIGNIFICANT WEATHER AND/OR OBSTRUCTIONS TO VISIBILITY.

* THESE STATIONS ARE NOT UNDER NWS QUALITY CONTROL. THEY ALSO MAY NOT
  REPORT WEATHER SUCH AS PRECIPITATION OR FOG.

ILZ001-002-007-009-015-016-024-020500-
NORTHWEST ILLINOIS

CITY           SKY/WX    TMP DP  RH WIND       PRES   REMARKS
MOLINE         CLOUDY    70  66  87 S5        29.88R
STERLING*      CLOUDY    72  66  83 SW3       29.87R
$$

ILZ003-004-008-010-011-017-018-020500-
NORTH CENTRAL ILLINOIS

CITY           SKY/WX    TMP DP  RH WIND       PRES   REMARKS
ROCKFORD       CLOUDY    69  66  90 W3        29.87R
$$

ILZ005-006-012>014-019>023-020500-
NORTHEAST ILLINOIS

CITY           SKY/WX    TMP DP  RH WIND       PRES   REMARKS
CHICAGO-OHARE  CLOUDY    72  66  81 SW6       29.85R
CHICAGO-MIDWAY CLOUDY    77  67  71 W10       29.84R
AURORA         MOCLDY    73  66  78 SW5       29.86R
WAUKEGAN       CLEAR     68  65  90 SW3       29.84R
DUPAGE AIRPORT CLOUDY    72  68  87 SW8       29.86R
WHEELING       CLOUDY    72  68  87 SW3       29.86R
NORTHERLY ISL    N/A     76  65  68 W7          N/A
$$

LMZ740>746-020500-
SOUTHERN LAKE MICHIGAN

STATION/POSITION SKY/WX   TEMP    WIND        PRES    VSBY  WAVE
                          AIR SEA DIR/SP/G                  HT/PER
                          (F)     (DEG/KT/KT) (MB)    (MI)  (FT/S)
SOUTHERN BUOY              71 70  250/  8/ 10 1009.3R         2/ 3
WAUKEGAN HARBOR            69     260/  7/ 10   N/A
HARRISON CRIB              76     220/ 15/ 21   N/A
BURNHAM HARBOR             76     270/  8/ 12   N/A
CALUMET HARBOR             75     210/  9/ 12 1009.3R
MICHIGAN CITY              74     190/ 13/ 17   N/A
MICHIGAN CITY 6N           74 72  210/ 12/ 16   N/A           2/ 4
ST. JOSEPH                 73 72  200/ 14/ 16   N/A           3/ 4
$$

ILZ025>027-034>036-040-047-049-050-058-095>099-020500-
WEST-CENTRAL ILLINOIS

CITY           SKY/WX    TMP DP  RH WIND       PRES   REMARKS
QUINCY         MOCLDY    72  69  90 S8        29.90S
MACOMB*        MOCLDY    71  68  92 SW3       29.92S
$$

ILZ028>032-037-038-041>044-048-051>054-059>061-020500-
CENTRAL ILLINOIS

CITY           SKY/WX    TMP DP  RH WIND       PRES   REMARKS
DECATUR        LGT RAIN  73  69  87 SW15G23   29.95R
PEORIA         CLOUDY    74  66  76 SW6       29.90R
SPRINGFIELD    LGT RAIN  72  70  93 S12       29.93R
TAYLORVILLE    NOT AVBL
$$

ILZ033-039-045-046-055>057-062-063-020500-
EAST-CENTRAL ILLINOIS

CITY           SKY/WX    TMP DP  RH WIND       PRES   REMARKS
CHAMPAIGN      RAIN      71  69  93 SW10      29.94R
MATTOON        CLOUDY    74  68  81 SW9       29.93R
$$

ILZ079-100>102-020500-
SOUTHWEST ILLINOIS

CITY           SKY/WX    TMP DP  RH WIND       PRES   REMARKS
BELLEVILLE     PTCLDY    77  72  83 VRB5      29.87S
CAHOKIA*       CLOUDY    78  70  76 NW5       29.89R HX  80
$$

ILZ064>066-069>071-074>076-080>082-084>086-088>090-092>094-020500-
SOUTH-CENTRAL ILLINOIS

CITY           SKY/WX    TMP DP  RH WIND       PRES   REMARKS
CARBONDALE     MOCLDY    76  72  87 S6        29.91F
MT. VERNON     MOCLDY    75  68  78 SE7       29.90F
$$

ILZ067-068-072-073-078-083-087-091-020500-
SOUTHEAST ILLINOIS

CITY           SKY/WX    TMP DP  RH WIND       PRES   REMARKS
LAWRENCEVILLE  CLOUDY    75  71  87 SW9       29.93S
ROBINSON*      MOCLDY    75  72  92 SW5       29.92F
$$

ABBREVIATIONS USED IN REMARKS
   TC - TEMPERATURE IN CELSIUS
  WCI - WIND CHILL INDEX
   HX - HEAT INDEX
  VSB - VISIBILITY
$$




USA.gov is the U.S. government's official web portal to all federal, state and local government web resources and services.